Regional Weather Roundup
Issued by NWS Newport/Morehead, NC

Current Version | Previous Version | Graphics & Text | Print | Product List | Glossary Off
Versions: 1 2 3 4 5 6 7 8 9 10 11 12 13 14 15 16 17 18 19 20 21 22 23 24 25 26 27 28 29 30 31 32 33 34 35 36 37 38 39 40 41 42 43 44 45 46 47 48 49 50

000
ASUS42 KMHX 022210
RWRMHX
WEATHER ROUNDUP FOR EASTERN NORTH CAROLINA
NATIONAL WEATHER SERVICE NEWPORT/MOREHEAD CITY NC
600 PM EDT TUE SEP 02 2014

NOTE: "FAIR" INDICATES FEW OR NO CLOUDS BELOW 12,000 FEET
WITH NO SIGNIFICANT WEATHER AND/OR OBSTRUCTIONS TO VISIBILITY

NCZ015>017-031-032-045>047-102-103-022300-
NORTH COAST

CITY           SKY/WX    TMP DP  RH WIND       PRES   REMARKS
EDENTON        SUNNY     91  71  51 SW8       29.93F
ELIZABETH CITY SUNNY     91  71  51 SW9       29.93F
KITTY HAWK     CLEAR     89  77  68 S8        29.94S HX 102
MANTEO         SUNNY     88  77  70 S16       29.95F HX 100

$$

NCZ045>047-081-094-103-104-022300-
CENTRAL COAST

CITY           SKY/WX    TMP DP  RH WIND       PRES   REMARKS
FRISCO         SUNNY     82  77  84 SW14G24   29.99F
SWANQUARTER      N/A     88 N/A N/A S16G23    29.91F

$$

NCZ095-097-098-100-101-022300-
SOUTHERN COAST

CITY           SKY/WX    TMP DP  RH WIND       PRES   REMARKS
BEAUFORT       SUNNY     84  77  79 SW16      30.00S
CEDAR ISLAND     N/A     88 N/A N/A S12       30.03S
JACKSONVILLE   MOSUNNY   86  74  67 S13       29.99R
NEWPORT        NOT AVBL
PINEY ISLAND   CLEAR     87  78  74 S14       29.98F HX 100
WILMINGTON     SUNNY     86  74  67 S13       30.01R


$$

NCZ011>013-027>030-043-044-078>080-089-090>093-098-022300-
COASTAL PLAIN

CITY           SKY/WX    TMP DP  RH WIND       PRES   REMARKS
AHOSKIE        SUNNY     90  71  53 S6        29.93F
CLINTON        PTSUNNY   87  77  72 SW5       29.99R
ELIZABETHTOWN  PTSUNNY   87  72  59 S5        29.99F
GOLDSBORO      PTSUNNY   90  76  62 S8        29.94R HX 101
GREENVILLE     SUNNY     91  73  55 S12       29.97R HX 100
HAVELOCK       SUNNY     84  75  74 SW8       30.00S
KENANSVILLE    MOSUNNY   86  73  65 S3        30.00R
KINSTON        MOSUNNY   90  75  62 S12       29.97R HX 100
NEW BERN       SUNNY     87  75  67 S8        29.98F
RICHLANDS      MOSUNNY   90  72  55 S12G20    29.99R
ROANOKE RAPIDS NOT AVBL
ROCKY MOUNT    SUNNY     93  72  50 S7        29.95S HX 101
WASHINGTON     SUNNY     91  71  51 S8        29.95S
WHITEVILLE     MOSUNNY   85  74  68 S8        30.00S

$$

AMZ130-135-150-152-154-156-158-170-250-252-270-ANZ085-086-088-633-658-670-022300-
MARINE OBSERVATIONS

STATION/POSITION TIME  TEMP    WIND        PRES    WAVE   SWELL
                       AIR SEA DIR/SP/G            HT/PER HT/PER
                 (UTC) (F)     (DEG/KT/KT) (MB)    (FT/S) (FT/S)
CHESAPEAKE LIGHT 2100   84     180/ 18/ 18 1013.4
BUOY 44014       2200   80 78  200/ 14/ 16 1013.5    2/ 8   2/ 8
DUCK             2200   90 75  220/  8/ 10 1013.0
2E DUCK          2200                        N/A     2/11   2/11
OREGON INLET     2200   83 85  190/ 21/ 24 1014.5
BUOY 44095       2200      80                N/A     3/ 4   2/12
20E OREGON INLET NOT AVBL
HATTERAS CG      2200   84 84  210/ 12/ 17 1016.1
DIAMOND BUOY     2200   82     210/ 16/ 19 1015.5    4/ 4   2/ 9
CAPE LOOKOUT     2100   84     210/ 13/ 17 1016.0
BEAUFORT LAB     2200   83 84  220/ 10/ 14 1015.3
30 SE NEW RIVER  2200   82 83  210/ 14/ 17 1016.1    3/ 9   2/ 9
5 SE WRIGHTSVILL 2100   80 83  210/ 16/ 17   N/A
BUOY 41002       2135   82 84  190/ 14/ 16 1018.3    4/11   3/11
BUOY 41004       2200   83 84  200/ 10/ 12 1016.6    2/ 9   2/ 9

$$


USA.gov is the U.S. government's official web portal to all federal, state and local government web resources and services.